| time (UTC) | temp F | wind direction | speed MPH | gust MPH | rain 1hr in | rain 24hr in | rain mn in | humidity % | barometer mb |
| 20260503231221 | 64 | 171 | 5.0 | 7.0 | 0.00 | 0.04 | 0.04 | 66 | 1015.7 |
| 20260503230721 | 64 | 162 | 5.0 | 7.0 | 0.00 | 0.04 | 0.04 | 68 | 1015.7 |
| 20260503230443 | 64 | 142 | 2.0 | 7.0 | 0.00 | 0.04 | 0.04 | 70 | 1015.6 |
| 20260503225720 | 63 | 157 | 3.0 | 7.0 | 0.00 | 0.04 | 0.04 | 69 | 1015.7 |
| 20260503225220 | 63 | 173 | 4.0 | 10.0 | 0.00 | 0.04 | 0.04 | 69 | 1015.8 |
| 20260503224720 | 63 | 189 | 5.0 | 10.0 | 0.00 | 0.04 | 0.04 | 69 | 1015.8 |
| 20260503224219 | 63 | 188 | 5.0 | 7.0 | 0.00 | 0.04 | 0.04 | 68 | 1015.8 |
| 20260503223720 | 63 | 147 | 5.0 | 7.0 | 0.00 | 0.04 | 0.04 | 67 | 1016.0 |
| 20260503223426 | 64 | 171 | 4.0 | 6.0 | 0.00 | 0.04 | 0.04 | 66 | 1016.0 |
| 20260503223416 | 63 | 137 | 3.0 | 7.0 | 0.00 | 0.04 | 0.04 | 66 | 1016.0 |
| 20260503222221 | 64 | 159 | 4.0 | 7.0 | 0.00 | 0.04 | 0.04 | 66 | 1016.1 |
| 20260503221719 | 64 | 159 | 4.0 | 7.0 | 0.00 | 0.04 | 0.04 | 65 | 1016.3 |
| 20260503221447 | 65 | 138 | 2.0 | 9.0 | 0.00 | 0.04 | 0.04 | 67 | 1016.3 |
| 20260503220941 | 65 | 140 | 3.0 | 9.0 | 0.00 | 0.04 | 0.04 | 65 | 1016.4 |
| 20260503220220 | 65 | 171 | 4.0 | 7.0 | 0.00 | 0.04 | 0.04 | 67 | 1016.4 |
| 20260503215719 | 65 | 147 | 2.0 | 7.0 | 0.00 | 0.04 | 0.04 | 67 | 1016.4 |
| 20260503215220 | 65 | 162 | 4.0 | 6.0 | 0.00 | 0.04 | 0.04 | 67 | 1016.5 |
| 20260503214719 | 66 | 140 | 2.0 | 6.0 | 0.00 | 0.04 | 0.04 | 66 | 1016.5 |
| 20260503214220 | 66 | 130 | 3.0 | 6.0 | 0.00 | 0.04 | 0.04 | 67 | 1016.5 |
| 20260503213719 | 67 | 172 | 3.0 | 5.0 | 0.00 | 0.04 | 0.04 | 67 | 1016.4 |
| 20260503213218 | 67 | 141 | 3.0 | 7.0 | 0.00 | 0.04 | 0.04 | 67 | 1016.5 |
| 20260503212937 | 68 | 124 | 4.0 | 7.0 | 0.00 | 0.04 | 0.04 | 67 | 1016.4 |
| 20260503212218 | 68 | 94 | 3.0 | 6.0 | 0.00 | 0.04 | 0.04 | 68 | 1016.3 |
| 20260503211717 | 68 | 99 | 2.0 | 6.0 | 0.00 | 0.04 | 0.04 | 69 | 1016.3 |
| 20260503211216 | 68 | 116 | 4.0 | 6.0 | 0.00 | 0.04 | 0.04 | 69 | 1016.3 |
| 20260503210717 | 67 | 104 | 2.0 | 9.0 | 0.00 | 0.04 | 0.04 | 69 | 1016.3 |
| 20260503210216 | 67 | 97 | 4.0 | 9.0 | 0.00 | 0.04 | 0.04 | 71 | 1016.4 |
| 20260503205718 | 66 | 106 | 3.0 | 7.0 | 0.00 | 0.04 | 0.04 | 73 | 1016.5 |
| 20260503205438 | 66 | 134 | 3.0 | 9.0 | 0.00 | 0.04 | 0.04 | 75 | 1016.5 |
| 20260503204718 | 65 | 127 | 2.0 | 9.0 | 0.00 | 0.04 | 0.04 | 75 | 1016.6 |
| 20260503204441 | 64 | 120 | 2.0 | 9.0 | 0.00 | 0.04 | 0.04 | 77 | 1016.6 |
| 20260503203718 | 63 | 130 | 2.0 | 5.0 | 0.00 | 0.04 | 0.04 | 76 | 1016.8 |
| 20260503203217 | 62 | 100 | 2.0 | 4.0 | 0.00 | 0.04 | 0.04 | 78 | 1016.7 |
| 20260503202716 | 62 | 114 | 2.0 | 3.0 | 0.00 | 0.04 | 0.04 | 76 | 1016.7 |
| 20260503202215 | 62 | 103 | 0.0 | 5.0 | 0.00 | 0.04 | 0.04 | 77 | 1016.7 |
| 20260503201715 | 62 | 103 | 2.0 | 5.0 | 0.00 | 0.04 | 0.04 | 76 | 1016.7 |
| 20260503201215 | 62 | 109 | 1.0 | 3.0 | 0.00 | 0.04 | 0.04 | 77 | 1016.7 |
| 20260503200715 | 62 | 114 | 1.0 | 4.0 | 0.00 | 0.04 | 0.04 | 78 | 1016.7 |
| 20260503200436 | 62 | 107 | 1.0 | 6.0 | 0.00 | 0.04 | 0.04 | 78 | 1016.7 |
| 20260503195715 | 62 | 97 | 2.0 | 6.0 | 0.00 | 0.04 | 0.04 | 78 | 1016.8 |
| 20260503195215 | 62 | 111 | 1.0 | 4.0 | 0.00 | 0.04 | 0.04 | 78 | 1016.8 |
| 20260503194714 | 62 | 120 | 1.0 | 4.0 | 0.00 | 0.04 | 0.04 | 78 | 1016.7 |
| 20260503194438 | 62 | 131 | 1.0 | 4.0 | 0.00 | 0.04 | 0.04 | 78 | 1016.7 |
| 20260503193714 | 62 | 92 | 2.0 | 6.0 | 0.00 | 0.04 | 0.04 | 79 | 1016.8 |
| 20260503193214 | 62 | 138 | 3.0 | 6.0 | 0.00 | 0.04 | 0.04 | 79 | 1016.9 |
| 20260503192715 | 62 | 113 | 3.0 | 4.0 | 0.00 | 0.04 | 0.04 | 80 | 1016.9 |
| 20260503192214 | 62 | 142 | 0.0 | 5.0 | 0.00 | 0.04 | 0.04 | 81 | 1017.0 |
| 20260503191934 | 61 | 152 | 1.0 | 5.0 | 0.00 | 0.04 | 0.04 | 82 | 1016.9 |
| 20260503191214 | 60 | 125 | 1.0 | 3.0 | 0.00 | 0.04 | 0.04 | 81 | 1016.9 |
| 20260503190714 | 60 | 82 | 0.0 | 5.0 | 0.00 | 0.04 | 0.04 | 80 | 1016.8 |
| 20260503190214 | 60 | 82 | 4.0 | 5.0 | 0.00 | 0.04 | 0.04 | 80 | 1016.9 |
| 20260503185714 | 60 | 148 | 2.0 | 7.0 | 0.00 | 0.04 | 0.04 | 80 | 1017.0 |
| 20260503185214 | 60 | 176 | 2.0 | 9.0 | 0.00 | 0.04 | 0.04 | 78 | 1017.0 |
| 20260503184715 | 61 | 214 | 4.0 | 9.0 | 0.00 | 0.04 | 0.04 | 79 | 1017.0 |
| 20260503184215 | 62 | 189 | 3.0 | 5.0 | 0.00 | 0.04 | 0.04 | 79 | 1017.0 |
| 20260503183715 | 62 | 93 | 3.0 | 9.0 | 0.00 | 0.04 | 0.04 | 78 | 1016.9 |
| 20260503183212 | 0 | 80 | 7.0 | 10.0 | 0.00 | 0.04 | 0.04 | 1016.8 | |
| 20260503182935 | 62 | 80 | 6.0 | 10.0 | 0.00 | 0.04 | 0.04 | 74 | 1016.7 |
| 20260503182211 | 62 | 78 | 6.0 | 9.0 | 0.00 | 0.04 | 0.04 | 74 | 1016.8 |
| 20260503181712 | 63 | 85 | 7.0 | 10.0 | 0.00 | 0.04 | 0.04 | 77 | 1016.8 |
| 20260503181211 | 63 | 89 | 7.0 | 10.0 | 0.00 | 0.04 | 0.04 | 78 | 1016.8 |
| 20260503180711 | 62 | 92 | 3.0 | 7.0 | 0.00 | 0.04 | 0.04 | 79 | 1016.7 |
| 20260503180212 | 62 | 110 | 3.0 | 6.0 | 0.00 | 0.04 | 0.04 | 78 | 1016.8 |
| 20260503175711 | 61 | 94 | 0.0 | 5.0 | 0.00 | 0.04 | 0.04 | 79 | 1016.7 |
| 20260503175212 | 60 | 55 | 2.0 | 6.0 | 0.00 | 0.04 | 0.04 | 84 | 1016.6 |
| 20260503174712 | 60 | 68 | 4.0 | 6.0 | 0.00 | 0.04 | 0.04 | 84 | 1016.6 |
| 20260503174210 | 59 | 49 | 2.0 | 4.0 | 0.00 | 0.04 | 0.04 | 85 | 1016.8 |
| 20260503173710 | 59 | 47 | 2.0 | 4.0 | 0.00 | 0.04 | 0.04 | 86 | 1016.7 |
| 20260503173436 | 58 | 35 | 1.0 | 7.0 | 0.00 | 0.04 | 0.04 | 87 | 1016.7 |
| 20260503172710 | 58 | 31 | 3.0 | 9.0 | 0.00 | 0.04 | 0.04 | 88 | 1016.6 |
| 20260503172211 | 58 | 327 | 5.0 | 9.0 | 0.00 | 0.04 | 0.04 | 89 | 1016.6 |
| 20260503171710 | 57 | 34 | 5.0 | 7.0 | 0.00 | 0.04 | 0.04 | 90 | 1016.6 |
| 20260503171209 | 57 | 47 | 2.0 | 6.0 | 0.00 | 0.04 | 0.04 | 90 | 1016.6 |
| 20260503170709 | 57 | 37 | 4.0 | 6.0 | 0.00 | 0.04 | 0.04 | 91 | 1016.5 |
| 20260503170210 | 57 | 49 | 1.0 | 5.0 | 0.00 | 0.04 | 0.04 | 92 | 1016.5 |
| 20260503160208 | 55 | 45 | 4.0 | 6.0 | 0.01 | 0.04 | 0.04 | 94 | 1016.1 |
| 20260503150708 | 54 | 314 | 2.0 | 5.0 | 0.02 | 0.03 | 0.03 | 94 | 1015.5 |
| 20260503150208 | 54 | 320 | 2.0 | 3.0 | 0.02 | 0.03 | 0.03 | 94 | 1015.5 |
| 20260503140207 | 53 | 306 | 2.0 | 4.0 | 0.01 | 0.01 | 0.01 | 93 | 1015.2 |
| 20260503131205 | 54 | 11 | 1.0 | 5.0 | 0.00 | 0.00 | 0.00 | 92 | 1014.6 |
| 20260503130704 | 54 | 45 | 4.0 | 5.0 | 0.00 | 0.00 | 0.00 | 92 | 1014.7 |
| 20260503130206 | 54 | 56 | 4.0 | 7.0 | 0.00 | 0.00 | 0.00 | 92 | 1014.6 |
| 20260503120158 | 55 | 34 | 5.0 | 7.0 | 0.00 | 0.00 | 0.00 | 91 | 1014.2 |
| 20260503110632 | 55 | 62 | 5.0 | 9.0 | 0.00 | 0.00 | 0.00 | 91 | 1014.1 |
| 20260503110131 | 55 | 38 | 4.0 | 10.0 | 0.00 | 0.00 | 0.00 | 91 | 1014.3 |
| 20260503100132 | 54 | 66 | 0.0 | 0.0 | 0.00 | 0.00 | 0.00 | 92 | 1014.2 |
| 20260503081558 | 55 | 62 | 0.0 | 0.0 | 0.00 | 0.00 | 0.00 | 89 | 1014.7 |
| 20260503081320 | 0 | 62 | 0.0 | 2.0 | 0.00 | 0.00 | 0.00 | 1014.7 | |
| 20260503080814 | 55 | 62 | 1.0 | 3.0 | 0.00 | 0.00 | 0.00 | 89 | 1014.9 |
| 20260503080314 | 55 | 62 | 1.0 | 3.0 | 0.00 | 0.00 | 0.00 | 89 | 1014.8 |
| 20260503072819 | 55 | 307 | 4.0 | 6.0 | 0.00 | 0.00 | 0.00 | 89 | 1014.8 |
| 20260503072323 | 55 | 303 | 4.0 | 6.0 | 0.00 | 0.00 | 0.00 | 89 | 1014.7 |
| 20260503071825 | 55 | 324 | 3.0 | 6.0 | 0.00 | 0.00 | 0.00 | 89 | 1014.7 |
| 20260503071055 | 56 | 306 | 3.0 | 10.0 | 0.00 | 0.00 | 0.00 | 89 | 1014.8 |
| 20260503070815 | 56 | 10 | 3.0 | 12.0 | 0.00 | 0.00 | 0.00 | 89 | 1014.7 |
| 20260503055052 | 56 | 310 | 2.0 | 5.0 | 0.00 | 0.00 | 0.00 | 87 | 1014.1 |
| 20260503054812 | 57 | 310 | 2.0 | 5.0 | 0.00 | 0.00 | 0.00 | 87 | 1014.0 |
| 20260503054052 | 57 | 39 | 1.0 | 5.0 | 0.00 | 0.00 | 0.00 | 87 | 1014.1 |
| 20260503053553 | 57 | 41 | 0.0 | 7.0 | 0.00 | 0.00 | 0.00 | 87 | 1014.0 |
| 20260503053052 | 57 | 49 | 3.0 | 7.0 | 0.00 | 0.00 | 0.00 | 87 | 1013.9 |
| 20260503052553 | 57 | 45 | 4.0 | 6.0 | 0.00 | 0.00 | 0.00 | 88 | 1013.8 |
| 20260503052051 | 57 | 63 | 1.0 | 3.0 | 0.00 | 0.00 | 0.00 | 88 | 1013.8 |
| 20260503051553 | 57 | 345 | 1.0 | 3.0 | 0.00 | 0.00 | 0.00 | 88 | 1013.7 |
| 20260503051052 | 57 | 39 | 0.0 | 3.0 | 0.00 | 0.00 | 0.00 | 88 | 1013.7 |
| 20260503050552 | 57 | 41 | 1.0 | 3.0 | 0.00 | 0.00 | 0.00 | 88 | 1013.7 |
| 20260503050052 | 57 | 38 | 1.0 | 5.0 | 0.00 | 0.00 | 0.00 | 88 | 1013.7 |
| 20260503045811 | 57 | 309 | 2.0 | 5.0 | 0.00 | 0.00 | 0.00 | 89 | 1013.8 |
| 20260503045051 | 57 | 310 | 2.0 | 9.0 | 0.00 | 0.00 | 0.00 | 89 | 1013.8 |
| 20260503044551 | 56 | 302 | 4.0 | 10.0 | 0.00 | 0.00 | 0.00 | 89 | 1013.7 |
| 20260503044052 | 56 | 310 | 5.0 | 12.0 | 0.00 | 0.00 | 0.00 | 90 | 1013.7 |
| 20260503043553 | 56 | 338 | 6.0 | 13.0 | 0.00 | 0.00 | 0.00 | 90 | 1013.6 |
| 20260503043052 | 56 | 300 | 9.0 | 13.0 | 0.00 | 0.00 | 0.00 | 90 | 1013.4 |
| 20260503042813 | 56 | 302 | 9.0 | 13.0 | 0.00 | 0.00 | 0.00 | 90 | 1013.4 |
| 20260503042542 | 56 | 0 | 9.0 | 13.0 | 0.00 | 0.00 | 0.00 | 90 | 1013.4 |
| 20260503041550 | 55 | 309 | 8.0 | 11.0 | 0.00 | 0.00 | 0.00 | 90 | 1013.4 |
| 20260503041050 | 55 | 302 | 8.0 | 10.0 | 0.00 | 0.00 | 0.00 | 89 | 1013.6 |
| 20260503040549 | 55 | 312 | 6.0 | 9.0 | 0.00 | 0.00 | 0.00 | 89 | 1013.5 |
| 20260503040050 | 55 | 309 | 5.0 | 9.0 | 0.00 | 0.00 | 0.00 | 89 | 1013.5 |
| 20260503035549 | 55 | 303 | 4.0 | 6.0 | 0.00 | 0.00 | 0.00 | 88 | 1013.5 |
| 20260503035050 | 56 | 305 | 4.0 | 6.0 | 0.00 | 0.00 | 0.00 | 88 | 1013.4 |
| 20260503034550 | 56 | 338 | 1.0 | 2.0 | 0.00 | 0.00 | 0.00 | 88 | 1013.4 |
| 20260503034309 | 56 | 251 | 0.0 | 2.0 | 0.00 | 0.00 | 0.00 | 88 | 1013.4 |
| 20260503034027 | 56 | 251 | 1.0 | 2.0 | 0.00 | 0.00 | 0.00 | 88 | 1013.3 |
| 20260503033049 | 56 | 203 | 0.0 | 1.0 | 0.00 | 0.00 | 0.00 | 87 | 1013.3 |
| 20260503032549 | 56 | 202 | 0.0 | 0.0 | 0.00 | 0.00 | 0.00 | 87 | 1013.2 |
| 20260503032311 | 56 | 203 | 0.0 | 2.0 | 0.00 | 0.00 | 0.00 | 87 | 1013.2 |
| 20260503031549 | 56 | 203 | 0.0 | 2.0 | 0.00 | 0.00 | 0.00 | 87 | 1013.2 |
| 20260503031050 | 56 | 212 | 0.0 | 4.0 | 0.00 | 0.00 | 0.00 | 87 | 1013.3 |
| 20260503030549 | 56 | 212 | 1.0 | 5.0 | 0.00 | 0.00 | 0.00 | 87 | 1013.2 |
| 20260503030306 | 56 | 216 | 3.0 | 5.0 | 0.00 | 0.00 | 0.00 | 87 | 1013.2 |
| 20260503025548 | 56 | 212 | 2.0 | 5.0 | 0.00 | 0.00 | 0.00 | 87 | 1013.2 |
| 20260503025048 | 56 | 210 | 3.0 | 5.0 | 0.00 | 0.00 | 0.00 | 86 | 1013.2 |
| 20260503024548 | 56 | 213 | 4.0 | 5.0 | 0.00 | 0.00 | 0.00 | 86 | 1013.1 |
| 20260503024308 | 57 | 216 | 4.0 | 7.0 | 0.00 | 0.00 | 0.00 | 85 | 1013.2 |
| 20260503023548 | 57 | 221 | 5.0 | 7.0 | 0.00 | 0.00 | 0.00 | 85 | 1013.2 |
| 20260503023048 | 58 | 206 | 4.0 | 9.0 | 0.00 | 0.00 | 0.00 | 85 | 1013.2 |
| 20260503022549 | 58 | 196 | 5.0 | 9.0 | 0.00 | 0.00 | 0.00 | 84 | 1013.3 |
| 20260503022050 | 58 | 204 | 5.0 | 7.0 | 0.00 | 0.00 | 0.00 | 84 | 1013.3 |
| 20260503021543 | 59 | 197 | 5.0 | 9.0 | 0.00 | 0.00 | 0.00 | 83 | 1013.2 |
| 20260503021033 | 59 | 204 | 5.0 | 9.0 | 0.00 | 0.00 | 0.00 | 83 | 1013.2 |
| 20260503020532 | 59 | 197 | 5.0 | 9.0 | 0.00 | 0.00 | 0.00 | 83 | 1013.3 |
| 20260503020032 | 59 | 188 | 6.0 | 10.0 | 0.00 | 0.00 | 0.00 | 82 | 1013.2 |
| 20260503015531 | 60 | 180 | 6.0 | 10.0 | 0.00 | 0.00 | 0.00 | 81 | 1013.3 |
| 20260503015022 | 60 | 183 | 5.0 | 10.0 | 0.00 | 0.00 | 0.00 | 82 | 1013.3 |
| 20260503014512 | 60 | 134 | 5.0 | 10.0 | 0.00 | 0.00 | 0.00 | 81 | 1013.4 |
| 20260503014013 | 60 | 164 | 4.0 | 9.0 | 0.00 | 0.00 | 0.00 | 81 | 1013.4 |
| 20260503013503 | 61 | 161 | 4.0 | 9.0 | 0.00 | 0.00 | 0.00 | 81 | 1013.4 |
| 20260503013003 | 61 | 178 | 5.0 | 7.0 | 0.00 | 0.00 | 0.00 | 81 | 1013.5 |
| 20260503012503 | 61 | 169 | 4.0 | 7.0 | 0.00 | 0.00 | 0.00 | 81 | 1013.6 |
| 20260503012003 | 61 | 169 | 6.0 | 9.0 | 0.00 | 0.00 | 0.00 | 80 | 1013.6 |
| 20260503011503 | 62 | 152 | 5.0 | 9.0 | 0.00 | 0.00 | 0.00 | 79 | 1013.7 |
| 20260503011224 | 62 | 164 | 5.0 | 7.0 | 0.00 | 0.00 | 0.00 | 79 | 1013.7 |
| 20260503010502 | 62 | 180 | 5.0 | 7.0 | 0.00 | 0.00 | 0.00 | 79 | 1013.8 |
| 20260503010003 | 62 | 162 | 4.0 | 7.0 | 0.00 | 0.00 | 0.00 | 79 | 1013.9 |
| 20260503005502 | 63 | 161 | 4.0 | 9.0 | 0.00 | 0.00 | 0.00 | 78 | 1013.9 |
| 20260503005003 | 64 | 168 | 4.0 | 9.0 | 0.00 | 0.00 | 0.00 | 77 | 1013.9 |
| 20260503004500 | 64 | 162 | 4.0 | 7.0 | 0.00 | 0.00 | 0.00 | 76 | 1014.0 |
| 20260503004217 | 65 | 149 | 4.0 | 7.0 | 0.00 | 0.00 | 0.00 | 76 | 1014.0 |
| 20260503003455 | 65 | 152 | 4.0 | 7.0 | 0.00 | 0.00 | 0.00 | 75 | 1013.9 |
| 20260503003214 | 66 | 172 | 5.0 | 7.0 | 0.00 | 0.00 | 0.00 | 74 | 1013.9 |
| 20260503002450 | 66 | 144 | 5.0 | 7.0 | 0.00 | 0.00 | 0.00 | 74 | 1013.9 |
| 20260503002216 | 66 | 165 | 2.0 | 5.0 | 0.00 | 0.00 | 0.00 | 74 | 1013.9 |
| 20260503001446 | 67 | 175 | 3.0 | 5.0 | 0.00 | 0.00 | 0.00 | 74 | 1014.0 |
| 20260503000946 | 67 | 148 | 4.0 | 5.0 | 0.00 | 0.00 | 0.00 | 73 | 1014.0 |
| 20260503000446 | 67 | 111 | 1.0 | 5.0 | 0.00 | 0.00 | 0.00 | 73 | 1014.0 |
| 20260502235947 | 67 | 161 | 4.0 | 5.0 | 0.00 | 0.00 | 0.00 | 73 | 1014.0 |
| 20260502235445 | 67 | 135 | 2.0 | 6.0 | 0.00 | 0.00 | 0.00 | 73 | 1014.1 |
| 20260502234947 | 68 | 137 | 3.0 | 6.0 | 0.00 | 0.00 | 0.00 | 73 | 1014.1 |
| 20260502234445 | 68 | 133 | 2.0 | 6.0 | 0.00 | 0.00 | 0.00 | 73 | 1014.0 |
| 20260502234437 | 68 | 141 | 3.0 | 5.0 | 0.00 | 0.00 | 0.00 | 73 | 1013.9 |
| 20260502233445 | 68 | 140 | 2.0 | 6.0 | 0.00 | 0.00 | 0.00 | 72 | 1013.9 |
| 20260502232946 | 68 | 137 | 3.0 | 6.0 | 0.00 | 0.00 | 0.00 | 73 | 1014.0 |
| 20260502232445 | 68 | 117 | 2.0 | 5.0 | 0.00 | 0.00 | 0.00 | 73 | 1014.1 |
| 20260502231945 | 68 | 123 | 2.0 | 5.0 | 0.00 | 0.00 | 0.00 | 74 | 1014.1 |
| 20260502231703 | 67 | 134 | 3.0 | 5.0 | 0.00 | 0.00 | 0.00 | 75 | 1014.1 |